FW7644 Weather Reports


time (UTC)temp
C
wind
direction
speed
KPH
gust
KPH
rain 1hr
cm
rain 24hr
cm
rain mn
cm
humidity
%
barometer
mb
20260509005847 15 0.0 0.0 0.41 1.37 1.37 99 1014.7
20260509005346 15 0.0 0.0 0.36 1.32 1.32 99 1014.6
20260509004844 15 0.0 0.0 0.41 1.27 1.27 99 1014.6
20260509004342 15 0.0 0.0 0.36 1.22 1.22 99 1014.6
20260509003839 15 0.0 0.0 0.36 1.17 1.17 99 1014.5
20260509003337 15 0.0 0.0 0.33 1.14 1.14 99 1014.5
20260509002835 15 0.0 0.0 0.36 1.12 1.12 99 1014.4
20260509002334 15 0.0 0.0 0.36 1.12 1.12 99 1014.5
20260509001831 15 0.0 0.0 0.38 1.12 1.12 99 1014.3
20260509001329 15 0.0 0.0 0.36 1.09 1.09 99 1014.2
20260509000827 15 0.0 0.0 0.38 1.07 1.07 99 1014.1
20260509000326 15 0.0 0.0 0.36 1.04 1.04 99 1014.1
20260508235824 15 0.0 0.0 0.38 1.02 1.02 99 1013.8
20260508235322 15 0.0 0.0 0.33 0.97 0.97 99 1013.8
20260508234821 15 0.0 0.0 0.33 0.94 0.94 99 1013.5
20260508234319 15 0.0 0.0 0.30 0.91 0.91 99 1013.4
20260508233817 15 0.0 0.0 0.25 0.86 0.86 99 1013.1
20260508233315 15 0.0 0.0 0.20 0.81 0.81 99 1012.8
20260508232813 16 0.0 0.0 0.23 0.81 0.81 99 1011.9
20260508232312 16 0.0 0.0 0.20 0.79 0.79 99 1012.3
20260508231810 16 0.0 0.0 0.18 0.79 0.79 99 1012.7
20260508231308 16 0.0 0.0 0.15 0.76 0.76 99 1012.9
20260508230806 16 0.0 0.0 0.15 0.76 0.76 99 1013.2
20260508230304 16 0.0 0.0 0.10 0.71 0.71 99 1013.5
20260508225802 16 0.0 0.0 0.08 0.69 0.69 99 1013.5
20260508225300 16 0.0 0.0 0.08 0.69 0.69 99 1013.5
20260508224758 16 0.0 0.0 0.05 0.66 0.66 99 1013.5
20260508224256 16 0.0 0.0 0.03 0.64 0.64 99 1013.5
20260508223754 16 0.0 0.0 0.03 0.64 0.64 99 1013.5
20260508223252 16 0.0 0.0 0.03 0.64 0.64 99 1013.5
20260508222750 16 0.0 0.0 0.00 0.61 0.61 99 1013.6
20260508222248 16 0.0 0.0 0.00 0.61 0.61 99 1013.6
20260508221746 16 0.0 0.0 0.03 0.61 0.61 99 1013.4
20260508221244 16 0.0 0.0 0.03 0.61 0.61 99 1013.4
20260508220742 16 0.0 0.0 0.05 0.61 0.61 99 1013.3
20260508220241 16 0.0 0.0 0.05 0.61 0.61 99 1013.1
20260508215739 16 0.0 0.0 0.05 0.61 0.61 99 1012.9
20260508215237 16 0.0 0.0 0.05 0.61 0.61 99 1012.2
20260508214735 16 0.0 0.0 0.05 0.61 0.61 99 1011.8
20260508214233 16 0.0 0.0 0.05 0.61 0.61 99 1011.6
20260508213731 16 0.0 0.0 0.05 0.61 0.61 99 1011.3
20260508213230 16 0.0 0.0 0.05 0.61 0.61 99 1011.4
20260508212727 16 0.0 0.0 0.05 0.61 0.61 99 1011.2
20260508212226 16 0.0 0.0 0.05 0.61 0.61 99 1011.3
20260508211724 16 0.0 0.0 0.05 0.61 0.61 99 1010.8
20260508211222 16 0.0 0.0 0.03 0.58 0.58 99 1011.0
20260508210720 16 0.0 0.0 0.03 0.58 0.58 99 1011.3
20260508210218 16 0.0 0.0 0.03 0.58 0.58 99 1011.5
20260508205716 16 0.0 0.0 0.00 0.56 0.56 99 1012.0
20260508205214 16 0.0 0.0 0.00 0.56 0.56 99 1012.4
20260508204712 16 0.0 0.0 0.00 0.56 0.56 99 1012.4
20260508204211 16 0.0 0.0 0.00 0.56 0.56 99 1012.3
20260508203709 16 0.0 0.0 0.00 0.56 0.56 99 1012.3
20260508203207 16 0.0 0.0 0.00 0.56 0.56 99 1012.2
20260508202705 16 0.0 0.0 0.03 0.56 0.56 99 1012.1
20260508202203 16 0.0 0.0 0.03 0.56 0.56 99 1012.2
20260508201702 16 0.0 0.0 0.03 0.56 0.56 99 1012.3
20260508201200 16 0.0 0.0 0.03 0.56 0.56 99 1012.3
20260508200659 16 0.0 0.0 0.05 0.56 0.56 99 1012.1
20260508200157 16 0.0 0.0 0.05 0.56 0.56 99 1011.7
20260508195655 16 0.0 0.0 0.08 0.56 0.56 99 1011.6
20260508195153 16 0.0 0.0 0.08 0.56 0.56 99 1011.3
20260508194651 16 0.0 0.0 0.10 0.56 0.56 99 1011.3
20260508194149 16 0.0 0.0 0.10 0.56 0.56 99 1011.3
20260508193648 16 0.0 0.0 0.13 0.56 0.56 99 1011.1
20260508193145 16 0.0 0.0 0.13 0.56 0.56 99 1011.0
20260508192643 16 0.0 0.0 0.18 0.56 0.56 99 1011.5
20260508192141 16 0.0 0.0 0.15 0.53 0.53 99 1012.6
20260508191640 16 0.0 0.0 0.15 0.53 0.53 99 1013.2
20260508191138 16 0.0 0.0 0.15 0.53 0.53 99 1013.5
20260508190636 16 0.0 0.0 0.15 0.51 0.51 99 1013.6
20260508190134 16 0.0 0.0 0.15 0.51 0.51 99 1013.7
20260508185632 16 0.0 0.0 0.13 0.48 0.48 99 1013.8
20260508185130 16 0.0 0.0 0.13 0.48 0.48 99 1013.8
20260508184629 16 0.0 0.0 0.13 0.48 0.48 99 1013.8
20260508184127 16 0.0 0.0 0.10 0.46 0.46 99 1013.9
20260508183625 16 0.0 0.0 0.08 0.43 0.43 99 1013.7
20260508183124 16 0.0 0.0 0.08 0.43 0.43 99 1013.8
20260508182622 16 0.0 0.0 0.05 0.41 0.41 99 1013.9
20260508182120 16 0.0 0.0 0.05 0.41 0.41 99 1013.8
20260508181618 16 0.0 0.0 0.05 0.38 0.38 99 1013.8
20260508181116 16 0.0 0.0 0.05 0.38 0.38 99 1013.9
20260508180615 16 0.0 0.0 0.03 0.36 0.36 99 1014.0
20260508180113 16 0.0 0.0 0.03 0.36 0.36 99 1013.8
20260508175611 16 0.0 0.0 0.08 0.36 0.36 99 1013.8
20260508175109 16 0.0 0.0 0.08 0.36 0.36 99 1013.7
20260508174607 16 0.0 0.0 0.13 0.36 0.36 99 1013.6
20260508174105 16 0.0 0.0 0.13 0.36 0.36 99 1013.5
20260508173603 16 0.0 0.0 0.18 0.36 0.36 99 1013.3
20260508173101 16 0.0 0.0 0.18 0.36 0.36 99 1013.1
20260508172600 16 0.0 0.0 0.20 0.36 0.36 99 1013.1
20260508172058 16 0.0 0.0 0.20 0.36 0.36 99 1013.1
20260508171556 16 0.0 0.0 0.23 0.33 0.33 99 1013.2
20260508171055 16 0.0 0.0 0.23 0.33 0.33 99 1013.1
20260508170553 16 0.0 0.0 0.28 0.33 0.33 99 1013.3
20260508170052 16 0.0 0.0 0.28 0.33 0.33 99 1013.6
20260508165550 16 0.0 0.0 0.28 0.30 0.30 99 1013.8
20260508165048 16 0.0 0.0 0.25 0.28 0.28 99 1013.9
20260508164546 16 0.0 0.0 0.25 0.28 0.28 99 1013.9
20260508164044 16 0.0 0.0 0.23 0.25 0.25 99 1013.9
20260508163542 16 0.0 0.0 0.20 0.23 0.23 99 1014.1
20260508163040 16 0.0 0.0 0.18 0.20 0.20 99 1014.1
20260508162539 16 0.0 0.0 0.18 0.18 0.18 99 1014.1
20260508162036 16 0.0 0.0 0.15 0.15 0.15 99 1014.2
20260508161535 16 0.0 0.0 0.13 0.13 0.13 99 1014.1
20260508161033 16 0.0 0.0 0.10 0.10 0.10 99 1013.9
20260508160531 16 0.0 0.0 0.08 0.08 0.08 99 1013.9
20260508160029 17 0.0 0.0 0.05 0.05 0.05 99 1013.9
20260508155527 17 0.0 0.0 0.03 0.03 0.03 99 1013.9
20260508155026 17 0.0 0.0 0.03 0.03 0.03 99 1013.9
20260508154524 17 0.0 0.0 0.03 0.03 0.03 99 1013.9
20260508154022 17 0.0 0.0 0.03 0.03 0.03 99 1013.8
20260508153520 17 0.0 0.0 0.03 0.03 0.03 99 1013.8
20260508153019 17 0.0 0.0 0.03 0.03 0.03 99 1013.7
20260508152517 17 0.0 0.0 0.00 0.00 0.00 99 1013.6
20260508152015 17 0.0 0.0 0.00 0.00 0.00 99 1013.6
20260508151513 17 0.0 0.0 0.00 0.00 0.00 99 1013.7
20260508151012 17 0.0 0.0 0.00 0.00 0.00 99 1013.6
20260508150510 17 0.0 0.0 0.00 0.00 0.00 99 1013.7
20260508150008 17 0.0 0.0 0.00 0.00 0.00 99 1013.7
20260508145506 17 0.0 0.0 0.00 0.00 0.00 99 1013.7
20260508145005 17 0.0 0.0 0.00 0.00 0.00 99 1014.0
20260508144503 18 0.0 0.0 0.00 0.00 0.00 99 1014.1
20260508144000 18 0.0 0.0 0.00 0.00 0.00 99 1014.4
20260508143459 18 0.0 0.0 0.00 0.00 0.00 99 1014.6
20260508142957 19 0.0 0.0 0.00 0.00 0.00 94 1014.6
20260508142455 19 0.0 0.0 0.00 0.00 0.00 92 1014.6
20260508141954 19 0.0 0.0 0.00 0.00 0.00 92 1014.8
20260508141452 19 0.0 0.0 0.00 0.00 0.00 90 1015.0
20260508140950 20 0.0 0.0 0.00 0.00 0.00 90 1015.0
20260508140448 20 0.0 0.0 0.00 0.00 0.00 89 1015.1
20260508135946 20 0.0 0.0 0.00 0.00 0.00 88 1014.9
20260508135444 20 0.0 0.0 0.00 0.00 0.00 86 1015.0
20260508134942 20 0.0 0.0 0.00 0.00 0.00 85 1014.9
20260508134441 20 0.0 0.0 0.00 0.00 0.00 85 1015.0
20260508133938 20 0.0 0.0 0.00 0.00 0.00 86 1015.1
20260508133436 20 0.0 0.0 0.00 0.00 0.00 85 1015.0
20260508132934 20 0.0 0.0 0.00 0.00 0.00 87 1014.9
20260508132432 20 0.0 0.0 0.00 0.00 0.00 89 1014.9
20260508131929 20 0.0 0.0 0.00 0.00 0.00 90 1015.0
20260508131427 20 0.0 0.0 0.00 0.00 0.00 89 1015.0
20260508130925 20 0.0 0.0 0.00 0.00 0.00 88 1015.1
20260508130423 20 0.0 0.0 0.00 0.00 0.00 87 1015.1
20260508125920 20 0.0 0.0 0.00 0.00 0.00 87 1015.0
20260508125418 20 0.0 0.0 0.00 0.00 0.00 87 1015.1
20260508124916 20 0.0 0.0 0.00 0.00 0.00 85 1015.1
20260508124414 20 0.0 0.0 0.00 0.00 0.00 85 1014.9
20260508123911 20 0.0 0.0 0.00 0.00 0.00 85 1014.9
20260508123410 20 0.0 0.0 0.00 0.00 0.00 85 1014.8
20260508122907 20 0.0 0.0 0.00 0.00 0.00 84 1014.8
20260508122405 20 0.0 0.0 0.00 0.00 0.00 83 1014.7
20260508121903 20 0.0 0.0 0.00 0.00 0.00 83 1014.7
20260508121401 20 0.0 0.0 0.00 0.00 0.00 82 1014.4
20260508120858 20 0.0 0.0 0.00 0.00 0.00 83 1014.4
20260508120356 20 0.0 0.0 0.00 0.00 0.00 83 1014.4
20260508115854 20 0.0 0.0 0.00 0.00 0.00 82 1014.4
20260508115352 20 0.0 0.0 0.00 0.00 0.00 80 1014.3
20260508114850 20 0.0 0.0 0.00 0.00 0.00 81 1014.5
20260508114348 20 0.0 0.0 0.00 0.00 0.00 82 1014.5
20260508113845 20 0.0 0.0 0.00 0.00 0.00 82 1014.5
20260508113343 20 0.0 0.0 0.00 0.00 0.00 82 1014.5
20260508112841 20 0.0 0.0 0.00 0.00 0.00 82 1014.4
20260508112340 20 0.0 0.0 0.00 0.00 0.00 83 1014.4
20260508111838 20 0.0 0.0 0.00 0.00 0.00 82 1014.4
20260508111337 20 0.0 0.0 0.00 0.00 0.00 83 1014.2
20260508110835 20 0.0 0.0 0.00 0.00 0.00 83 1014.0
20260508110334 20 0.0 0.0 0.00 0.00 0.00 83 1013.8
20260508105832 19 0.0 0.0 0.00 0.00 0.00 83 1013.8
20260508105330 19 0.0 0.0 0.00 0.00 0.00 83 1013.7
20260508104828 19 0.0 0.0 0.00 0.00 0.00 83 1013.7
20260508104326 19 0.0 0.0 0.00 0.00 0.00 83 1013.7
20260508103824 19 0.0 0.0 0.00 0.00 0.00 83 1013.6
20260508103323 19 0.0 0.0 0.00 0.00 0.00 84 1013.6
20260508102821 19 0.0 0.0 0.00 0.00 0.00 83 1013.6
20260508102319 19 0.0 0.0 0.00 0.00 0.00 82 1013.5
20260508101817 19 0.0 0.0 0.00 0.00 0.00 82 1013.3
20260508101316 19 0.0 0.0 0.00 0.00 0.00 81 1013.2
20260508100814 19 0.0 0.0 0.00 0.00 0.00 82 1013.2
20260508100312 19 0.0 0.0 0.00 0.00 0.00 84 1013.2
20260508095810 18 0.0 0.0 0.00 0.00 0.00 85 1013.2
20260508095308 19 0.0 0.0 0.00 0.00 0.00 84 1013.1
20260508094807 18 0.0 0.0 0.00 0.00 0.00 85 1012.9
20260508094305 18 0.0 0.0 0.00 0.00 0.00 88 1012.8
20260508093803 18 0.0 0.0 0.00 0.00 0.00 89 1012.6
20260508093302 18 0.0 0.0 0.00 0.00 0.00 88 1012.5
20260508092800 18 0.0 0.0 0.00 0.00 0.00 87 1012.5
20260508092258 18 0.0 0.0 0.00 0.00 0.00 87 1012.3
20260508091756 18 0.0 0.0 0.00 0.00 0.00 87 1012.2
20260508091255 18 0.0 0.0 0.00 0.00 0.00 87 1012.0
20260508090753 18 0.0 0.0 0.00 0.00 0.00 88 1011.9
20260508090251 18 0.0 0.0 0.00 0.00 0.00 88 1012.0
20260508085750 18 0.0 0.0 0.00 0.00 0.00 89 1012.0
20260508085248 18 0.0 0.0 0.00 0.00 0.00 89 1012.0
20260508084746 18 0.0 0.0 0.00 0.00 0.00 89 1012.0
20260508084244 18 0.0 0.0 0.00 0.00 0.00 88 1011.8
20260508083742 18 0.0 0.0 0.00 0.00 0.00 90 1011.5
20260508083240 18 0.0 0.0 0.00 0.00 0.00 90 1011.6
20260508082739 18 0.0 0.0 0.00 0.00 0.00 90 1011.8
20260508082237 18 0.0 0.0 0.00 0.00 0.00 90 1012.0
20260508081736 18 0.0 0.0 0.00 0.00 0.00 90 1012.0
20260508081234 18 0.0 0.0 0.00 0.00 0.00 91 1012.0
20260508080732 18 0.0 0.0 0.00 0.00 0.00 93 1012.0
20260508080230 18 0.0 0.0 0.00 0.00 0.00 95 1012.0
20260508075729 18 0.0 0.0 0.00 0.00 0.00 94 1011.9
20260508075227 18 0.0 0.0 0.00 0.00 0.00 94 1011.9
20260508074726 18 0.0 0.0 0.00 0.00 0.00 95 1011.9
20260508074224 18 0.0 0.0 0.00 0.00 0.00 96 1011.8
20260508073723 18 0.0 0.0 0.00 0.00 0.00 95 1011.7
20260508073221 18 0.0 0.0 0.00 0.00 0.00 94 1011.7
20260508072720 18 0.0 0.0 0.00 0.00 0.00 94 1011.6
20260508072218 18 0.0 0.0 0.00 0.00 0.00 95 1011.7
20260508071717 18 0.0 0.0 0.00 0.00 0.00 95 1011.9
20260508071215 18 0.0 0.0 0.00 0.00 0.00 94 1012.2
20260508070714 18 0.0 0.0 0.00 0.00 0.00 94 1012.3
20260508070212 18 0.0 0.0 0.00 0.00 0.00 96 1012.3
20260508065710 18 0.0 0.0 0.00 0.00 0.00 96 1012.4
20260508065208 18 0.0 0.0 0.00 0.00 0.00 96 1012.5
20260508064707 18 0.0 0.0 0.00 0.00 0.00 95 1012.7
20260508064206 18 0.0 0.0 0.00 0.00 0.00 95 1012.9
20260508063704 18 0.0 0.0 0.00 0.00 0.00 96 1013.0
20260508063202 18 0.0 0.0 0.00 0.00 0.00 96 1013.2
20260508062700 18 0.0 0.0 0.00 0.00 0.00 96 1013.3
20260508062158 18 0.0 0.0 0.00 0.00 0.00 97 1013.3
20260508061657 17 0.0 0.0 0.00 0.00 0.00 98 1013.2
20260508061155 17 0.0 0.0 0.00 0.00 0.00 99 1013.3
20260508060653 17 0.0 0.0 0.00 0.00 0.00 99 1013.4
20260508060152 17 0.0 0.0 0.00 0.00 0.00 99 1013.4
20260508055650 17 0.0 0.0 0.00 0.00 0.00 99 1013.4
20260508055148 17 0.0 0.0 0.00 0.00 0.00 99 1013.4
20260508054647 17 0.0 0.0 0.00 0.00 0.00 99 1013.5
20260508054145 16 0.0 0.0 0.00 0.00 0.00 99 1013.4
20260508053643 16 0.0 0.0 0.00 0.00 0.00 99 1013.4
20260508053141 16 0.0 0.0 0.00 0.00 0.00 99 1013.5
20260508052639 16 0.0 0.0 0.00 0.00 0.00 99 1013.5
20260508052138 16 0.0 0.0 0.00 0.00 0.00 99 1013.5
20260508051636 16 0.0 0.0 0.00 0.00 0.00 99 1013.4
20260508051134 16 0.0 0.0 0.00 0.00 0.00 99 1013.3
20260508050632 16 0.0 0.0 0.00 0.00 0.00 99 1013.4
20260508050131 16 0.0 0.0 0.00 0.00 0.00 99 1013.3
20260508045630 16 0.0 0.0 0.00 0.00 0.00 99 1013.4
20260508045128 16 0.0 0.0 0.00 0.00 0.00 99 1013.3
20260508044626 15 0.0 0.0 0.00 0.00 0.00 99 1013.2
20260508044125 15 0.0 0.0 0.00 0.00 0.00 99 1013.2
20260508043623 15 0.0 0.0 0.00 0.00 0.00 99 1013.2
20260508043121 15 0.0 0.0 0.00 0.00 0.00 99 1013.2
20260508042619 15 0.0 0.0 0.00 0.00 0.00 99 1013.2
20260508042117 16 0.0 0.0 0.00 0.00 0.00 99 1013.3
20260508041615 16 0.0 0.0 0.00 0.00 0.00 99 1013.3
20260508041114 16 0.0 0.0 0.00 0.00 0.00 99 1013.3
20260508040612 16 0.0 0.0 0.00 0.00 0.00 99 1013.4
20260508040110 16 0.0 0.0 0.00 0.00 0.00 99 1013.4
20260508035608 16 0.0 0.0 0.00 0.00 0.00 99 1013.5
20260508035107 16 0.0 0.0 0.00 0.00 0.00 99 1013.3
20260508034605 16 0.0 0.0 0.00 0.00 0.00 99 1013.4
20260508034103 16 0.0 0.0 0.00 0.00 0.00 99 1013.3
20260508033601 16 0.0 0.0 0.00 0.00 0.00 99 1013.4
20260508033059 16 0.0 0.0 0.00 0.00 0.00 99 1013.5
20260508032558 17 0.0 0.0 0.00 0.00 0.00 99 1013.6
20260508032056 17 0.0 0.0 0.00 0.00 0.00 99 1013.7
20260508031554 16 0.0 0.0 0.00 0.00 0.00 99 1013.7
20260508031052 16 0.0 0.0 0.00 0.00 0.00 99 1013.6
20260508030551 16 0.0 0.0 0.00 0.00 0.00 99 1013.7
20260508030049 16 0.0 0.0 0.00 0.00 0.00 99 1013.6
20260508025547 16 0.0 0.0 0.00 0.00 0.00 99 1013.7
20260508025045 16 0.0 0.0 0.00 0.00 0.00 99 1013.7
20260508024543 16 0.0 0.0 0.00 0.00 0.00 99 1013.7
20260508024042 16 0.0 0.0 0.00 0.00 0.00 99 1013.7
20260508023540 16 0.0 0.0 0.00 0.00 0.00 99 1013.7
20260508023038 16 0.0 0.0 0.00 0.00 0.00 99 1013.7
20260508022536 16 0.0 0.0 0.00 0.00 0.00 99 1013.8
20260508022034 16 0.0 0.0 0.00 0.00 0.00 99 1013.9
20260508021533 16 0.0 0.0 0.00 0.00 0.00 99 1013.9
20260508021031 16 0.0 0.0 0.00 0.00 0.00 99 1013.8
20260508020529 16 0.0 0.0 0.00 0.00 0.00 99 1013.9
20260508020027 16 0.0 0.0 0.00 0.00 0.00 99 1014.0
20260508015525 16 0.0 0.0 0.00 0.00 0.00 99 1014.0
20260508015023 16 0.0 0.0 0.00 0.00 0.00 99 1014.0
20260508014522 16 0.0 0.0 0.00 0.00 0.00 99 1014.1
20260508014020 16 0.0 0.0 0.00 0.00 0.00 99 1014.1
20260508013518 16 0.0 0.0 0.00 0.00 0.00 99 1014.2
20260508013016 16 0.0 0.0 0.00 0.00 0.00 99 1014.2
20260508012514 16 0.0 0.0 0.00 0.00 0.00 99 1014.2
20260508012012 16 0.0 0.0 0.00 0.00 0.00 99 1014.1
20260508011511 16 0.0 0.0 0.00 0.00 0.00 99 1014.1
20260508011009 16 0.0 0.0 0.00 0.00 0.00 99 1014.1
20260508010507 17 0.0 0.0 0.00 0.00 0.00 99 1014.1